Previsão horária em Alimos

Hoje, 25 Junho, Sexta-feira

Tempo Temperatura Precipitação Vento Pressão Humidade
00:00 +30°C° 0 mm 1 m/s 759 mmHg 53%
01:00 +30°C° 0 mm 1 m/s 758 mmHg 52%
02:00 +30°C° 0 mm 1 m/s 758 mmHg 52%
03:00 +30°C° 0 mm 1 m/s 758 mmHg 52%
04:00 +29°C° 0 mm 1 m/s 758 mmHg 53%
05:00 +29°C° 0 mm 1 m/s 757 mmHg 53%
06:00 +30°C° 0 mm 1 m/s 758 mmHg 49%
07:00 +32°C° 0 mm 1 m/s 758 mmHg 45%
08:00 +33°C° 0 mm 1 m/s 758 mmHg 41%
09:00 +34°C° 0 mm 1 m/s 758 mmHg 39%
10:00 +35°C° 0 mm 1 m/s 758 mmHg 36%
11:00 +36°C° 0 mm 1 m/s 758 mmHg 34%
12:00 +38°C° 0 mm 2 m/s 758 mmHg 34%
13:00 +38°C° 0 mm 2 m/s 757 mmHg 33%
14:00 +39°C° 0 mm 3 m/s 757 mmHg 33%
15:00 +38°C° 0 mm 3 m/s 757 mmHg 33%
16:00 +38°C° 0 mm 3 m/s 757 mmHg 34%
17:00 +38°C° 0 mm 3 m/s 756 mmHg 35%
18:00 +37°C° 0 mm 3 m/s 756 mmHg 39%
19:00 +35°C° 0 mm 2 m/s 756 mmHg 43%
20:00 +34°C° 0 mm 2 m/s 756 mmHg 46%
21:00 +32°C° 0 mm 2 m/s 757 mmHg 48%
22:00 +32°C° 0 mm 2 m/s 757 mmHg 49%
23:00 +31°C° 0 mm 2 m/s 757 mmHg 51%

Amanhã, 26 Junho, Sábado

Tempo Temperatura Precipitação Vento Pressão Humidade
00:00 +31°C° 0 mm 2 m/s 757 mmHg 51%
01:00 +31°C° 0 mm 2 m/s 756 mmHg 52%
02:00 +30°C° 0 mm 1 m/s 756 mmHg 52%
03:00 +30°C° 0 mm 1 m/s 756 mmHg 52%
04:00 +30°C° 0 mm 1 m/s 756 mmHg 52%
05:00 +30°C° 0 mm 1 m/s 756 mmHg 52%
06:00 +31°C° 0 mm 1 m/s 756 mmHg 48%
07:00 +32°C° 0 mm 1 m/s 756 mmHg 43%
08:00 +34°C° 0 mm 1 m/s 756 mmHg 39%
09:00 +35°C° 0 mm 1 m/s 756 mmHg 36%
10:00 +36°C° 0 mm 1 m/s 756 mmHg 33%
11:00 +37°C° 0 mm 1 m/s 756 mmHg 31%
12:00 +39°C° 0 mm 2 m/s 756 mmHg 30%
13:00 +39°C° 0 mm 3 m/s 755 mmHg 29%
14:00 +39°C° 0 mm 3 m/s 755 mmHg 28%
15:00 +39°C° 0 mm 3 m/s 755 mmHg 29%
16:00 +39°C° 0 mm 3 m/s 755 mmHg 31%
17:00 +38°C° 0 mm 3 m/s 754 mmHg 32%
18:00 +37°C° 0 mm 3 m/s 754 mmHg 36%
19:00 +35°C° 0 mm 2 m/s 754 mmHg 40%
20:00 +34°C° 0 mm 2 m/s 755 mmHg 44%
21:00 +33°C° 0 mm 1 m/s 755 mmHg 45%
22:00 +32°C° 0 mm 1 m/s 755 mmHg 46%
23:00 +32°C° 0 mm 1 m/s 755 mmHg 46%

Depois de amanhã, 27 Junho, Domingo

Tempo Temperatura Precipitação Vento Pressão Humidade
00:00 +31°C° 0 mm 1 m/s 755 mmHg 47%
01:00 +31°C° 0 mm 1 m/s 755 mmHg 47%
02:00 +31°C° 0 mm 1 m/s 755 mmHg 47%
03:00 +30°C° 0 mm 1 m/s 755 mmHg 49%
04:00 +30°C° 0 mm 2 m/s 755 mmHg 50%
05:00 +29°C° 0 mm 2 m/s 755 mmHg 51%
06:00 +30°C° 0 mm 2 m/s 755 mmHg 49%
07:00 +33°C° 0 mm 3 m/s 755 mmHg 46%
08:00 +34°C° 0 mm 3 m/s 755 mmHg 44%
09:00 +35°C° 0 mm 3 m/s 755 mmHg 41%
10:00 +36°C° 0 mm 3 m/s 756 mmHg 39%
11:00 +37°C° 0 mm 3 m/s 756 mmHg 36%
12:00 +37°C° 0 mm 3 m/s 755 mmHg 35%
13:00 +38°C° 0 mm 3 m/s 755 mmHg 35%
14:00 +38°C° 0 mm 3 m/s 755 mmHg 34%
15:00 +37°C° 0 mm 4 m/s 755 mmHg 36%
16:00 +37°C° 0 mm 4 m/s 755 mmHg 38%
17:00 +36°C° 0 mm 4 m/s 755 mmHg 40%
18:00 +35°C° 0 mm 4 m/s 755 mmHg 43%
19:00 +34°C° 0 mm 3 m/s 755 mmHg 45%
20:00 +32°C° 0 mm 2 m/s 756 mmHg 48%
21:00 +31°C° 0 mm 2 m/s 756 mmHg 49%
22:00 +31°C° 0 mm 1 m/s 756 mmHg 50%
23:00 +31°C° 0 mm 1 m/s 756 mmHg 51%

28 Junho, Segunda-feira

Tempo Temperatura Precipitação Vento Pressão Humidade
00:00 +30°C° 0 mm 1 m/s 756 mmHg 51%
01:00 +30°C° 0 mm 1 m/s 756 mmHg 51%
02:00 +30°C° 0 mm 1 m/s 756 mmHg 51%
03:00 +29°C° 0 mm 2 m/s 756 mmHg 50%
04:00 +29°C° 0 mm 2 m/s 756 mmHg 50%
05:00 +29°C° 0 mm 3 m/s 756 mmHg 50%
06:00 +30°C° 0 mm 3 m/s 757 mmHg 48%
07:00 +31°C° 0 mm 3 m/s 757 mmHg 46%
08:00 +33°C° 0 mm 3 m/s 757 mmHg 44%
09:00 +34°C° 0 mm 3 m/s 758 mmHg 43%
10:00 +35°C° 0 mm 3 m/s 758 mmHg 42%
11:00 +36°C° 0 mm 3 m/s 758 mmHg 40%
12:00 +36°C° 0 mm 4 m/s 758 mmHg 39%
13:00 +36°C° 0 mm 4 m/s 757 mmHg 38%
14:00 +37°C° 0 mm 4 m/s 757 mmHg 37%
15:00 +36°C° 0 mm 4 m/s 757 mmHg 38%
16:00 +36°C° 0 mm 5 m/s 757 mmHg 39%
17:00 +35°C° 0 mm 5 m/s 757 mmHg 40%
18:00 +34°C° 0 mm 4 m/s 757 mmHg 42%
19:00 +33°C° 0 mm 3 m/s 757 mmHg 45%
20:00 +31°C° 0 mm 2 m/s 757 mmHg 48%
21:00 +31°C° 0 mm 2 m/s 758 mmHg 47%
22:00 +30°C° 0 mm 2 m/s 758 mmHg 47%
23:00 +30°C° 0 mm 1 m/s 758 mmHg 46%

29 Junho, Terça-feira

Tempo Temperatura Precipitação Vento Pressão Humidade
00:00 +30°C° 0 mm 2 m/s 758 mmHg 46%
01:00 +30°C° 0 mm 2 m/s 758 mmHg 46%
02:00 +29°C° 0 mm 2 m/s 757 mmHg 46%
03:00 +29°C° 0 mm 2 m/s 757 mmHg 48%
04:00 +28°C° 0 mm 2 m/s 757 mmHg 50%
05:00 +28°C° 0 mm 2 m/s 757 mmHg 52%
06:00 +29°C° 0 mm 3 m/s 757 mmHg 49%
07:00 +30°C° 0 mm 3 m/s 757 mmHg 46%
08:00 +33°C° 0 mm 3 m/s 758 mmHg 44%
09:00 +34°C° 0 mm 3 m/s 758 mmHg 41%
10:00 +35°C° 0 mm 3 m/s 757 mmHg 39%
11:00 +36°C° 0 mm 3 m/s 757 mmHg 37%
12:00 +36°C° 0 mm 3 m/s 757 mmHg 36%
13:00 +37°C° 0 mm 3 m/s 757 mmHg 35%
14:00 +37°C° 0 mm 3 m/s 757 mmHg 34%
15:00 +37°C° 0 mm 3 m/s 756 mmHg 35%
16:00 +37°C° 0 mm 3 m/s 756 mmHg 35%
17:00 +36°C° 0 mm 4 m/s 756 mmHg 36%
18:00 +35°C° 0 mm 3 m/s 756 mmHg 40%
19:00 +34°C° 0 mm 3 m/s 756 mmHg 43%
20:00 +31°C° 0 mm 3 m/s 756 mmHg 47%
21:00 +31°C° 0 mm 2 m/s 756 mmHg 49%
22:00 +30°C° 0 mm 1 m/s 757 mmHg 52%
23:00 +30°C° 0 mm 1 m/s 757 mmHg 54%

30 Junho, Quarta-feira

Tempo Temperatura Precipitação Vento Pressão Humidade
00:00 +30°C° 0 mm 1 m/s 757 mmHg 54%
01:00 +30°C° 0 mm 1 m/s 757 mmHg 53%
02:00 +29°C° 0 mm 1 m/s 756 mmHg 53%
03:00 +29°C° 0 mm 1 m/s 756 mmHg 52%
04:00 +29°C° 0 mm 2 m/s 756 mmHg 52%
05:00 +29°C° 0 mm 2 m/s 756 mmHg 51%
06:00 +30°C° 0 mm 2 m/s 757 mmHg 47%
07:00 +31°C° 0 mm 2 m/s 757 mmHg 42%
08:00 +34°C° 0 mm 2 m/s 757 mmHg 38%
09:00 +35°C° 0 mm 2 m/s 757 mmHg 36%
10:00 +36°C° 0 mm 2 m/s 757 mmHg 34%
11:00 +37°C° 0 mm 2 m/s 757 mmHg 31%
12:00 +38°C° 0 mm 3 m/s 757 mmHg 30%
13:00 +39°C° 0 mm 3 m/s 756 mmHg 29%
14:00 +39°C° 0 mm 3 m/s 756 mmHg 28%
15:00 +39°C° 0 mm 3 m/s 756 mmHg 29%
16:00 +39°C° 0 mm 3 m/s 756 mmHg 30%
17:00 +38°C° 0 mm 3 m/s 756 mmHg 31%
18:00 +37°C° 0 mm 3 m/s 756 mmHg 37%
19:00 +35°C° 0 mm 2 m/s 756 mmHg 43%
20:00 +32°C° 0 mm 2 m/s 756 mmHg 49%
21:00 +32°C° 0 mm 2 m/s 756 mmHg 49%
22:00 +31°C° 0 mm 2 m/s 756 mmHg 48%
23:00 +31°C° 0 mm 3 m/s 756 mmHg 47%
Mostrar mais